Location: Hawaiian Village Mobile Home Park
(32.8359°N, 116.9792°W)
Time: 18:33:37
(UTC+00:00)

ALOS - Pass Details

Date: 01 August 2021
Orbit: 682 x 685 km, 97.9° (Epoch: 23 September)

Event Time Altitude Azimuth Distance (km) Brightness Sun altitude
Rises 12:27:55 0° 359° (N) 3,053 6.0 -7.3°
Reaches altitude 10° 12:30:22 10° 348° (NNW) 2,133 5.0 -6.9°
Maximum altitude 12:34:24 30° 289° (WNW) 1,227 3.2 -6.1°
Drops below altitude 10° 12:38:25 10° 229° (SW) 2,120 4.2 -5.4°
Enters shadow 12:39:59 - 221° (SW) 2,697 4.8 -5.1°
